Local,Data,Vel_media,Vel_mediana,Vel_std,Volume
5098,2018-08-03 07:00:00,90.60550458715596,89.0,20.81399918351956,109
5098,2018-08-03 07:04:00,78.26595744680851,78.0,18.99472226184476,94
5098,2018-08-03 07:08:00,86.17391304347827,83.0,21.153343172580804,92
5098,2018-08-03 07:12:00,92.51136363636364,93.0,22.91162146420725,88
5098,2018-08-03 07:16:00,94.4875,94.0,21.513606968849423,80
5098,2018-08-03 07:20:00,94.0,94.0,19.97538808214394,125
5098,2018-08-03 07:24:00,91.94827586206897,86.0,19.51358270654001,116
5098,2018-08-03 07:28:00,92.01801801801801,89.0,21.202908026101255,111
5098,2018-08-03 07:32:00,80.25563909774436,81.0,16.3497076868218,133
5098,2018-08-03 07:36:00,82.42857142857143,83.0,14.558806858491428,126
5098,2018-08-03 07:40:00,88.09836065573771,92.0,18.12236180221386,122
5098,2018-08-03 07:44:00,91.20792079207921,94.0,31.20362697882513,101
5098,2018-08-03 07:48:00,96.40625,98.5,24.856893560546037,128
5098,2018-08-03 07:52:00,94.83783783783784,100.0,20.488275742782744,148
5098,2018-08-03 07:56:00,95.28888888888889,94.0,20.471992759919324,135
5098,2018-08-03 08:00:00,91.07534246575342,93.0,19.28590180682764,146
5098,2018-08-03 08:04:00,80.15950920245399,81.0,15.260263245617095,163
5098,2018-08-03 08:08:00,78.3,78.0,13.099292838478618,130
5098,2018-08-03 08:12:00,85.92753623188406,89.0,15.694918830539326,138
5098,2018-08-03 08:16:00,83.15037593984962,83.0,15.25415802261175,133
5098,2018-08-03 08:20:00,80.77443609022556,78.0,14.008988749302405,133
5098,2018-08-03 08:24:00,89.02857142857142,92.0,18.272494900449367,140
5098,2018-08-03 08:28:00,90.80405405405405,92.0,16.755000790213387,148
5098,2018-08-03 08:32:00,83.05298013245033,86.0,19.97357857419653,151
5098,2018-08-03 08:36:00,87.4375,89.0,21.219790940512468,128
5098,2018-08-03 08:40:00,84.21897810218978,83.0,14.713796711043981,137
5098,2018-08-03 08:44:00,82.53956834532374,86.0,13.309725215780016,139
5098,2018-08-03 08:48:00,86.38461538461539,89.0,18.864833209479134,130
5098,2018-08-03 08:52:00,87.99137931034483,89.0,16.557932915336554,116
5098,2018-08-03 08:56:00,86.21830985915493,87.5,18.93629341953388,142
5129,2018-08-03 07:00:00,0.0,0.0,0.0,71
5129,2018-08-03 07:04:00,0.0,0.0,0.0,70
5129,2018-08-03 07:08:00,0.0,0.0,0.0,65
5129,2018-08-03 07:12:00,0.0,0.0,0.0,68
5129,2018-08-03 07:16:00,0.0,0.0,0.0,74
5129,2018-08-03 07:20:00,0.0,0.0,0.0,72
5129,2018-08-03 07:24:00,0.0,0.0,0.0,71
5129,2018-08-03 07:28:00,0.0,0.0,0.0,71
5129,2018-08-03 07:32:00,0.0,0.0,0.0,61
5129,2018-08-03 07:36:00,0.0,0.0,0.0,63
5129,2018-08-03 07:40:00,0.0,0.0,0.0,56
5129,2018-08-03 07:44:00,0.0,0.0,0.0,73
5129,2018-08-03 07:48:00,0.0,0.0,0.0,66
5129,2018-08-03 07:52:00,0.0,0.0,0.0,77
5129,2018-08-03 07:56:00,0.0,0.0,0.0,77
5129,2018-08-03 08:00:00,0.0,0.0,0.0,73
5129,2018-08-03 08:04:00,0.0,0.0,0.0,71
5129,2018-08-03 08:08:00,0.0,0.0,0.0,57
5129,2018-08-03 08:12:00,0.0,0.0,0.0,56
5129,2018-08-03 08:16:00,0.0,0.0,0.0,47
5129,2018-08-03 08:20:00,0.0,0.0,0.0,64
5129,2018-08-03 08:24:00,0.0,0.0,0.0,77
5129,2018-08-03 08:28:00,0.0,0.0,0.0,70
5129,2018-08-03 08:32:00,0.0,0.0,0.0,67
5129,2018-08-03 08:36:00,0.0,0.0,0.0,64
5129,2018-08-03 08:40:00,0.0,0.0,0.0,49
5129,2018-08-03 08:44:00,0.0,0.0,0.0,67
5129,2018-08-03 08:48:00,0.0,0.0,0.0,75
5129,2018-08-03 08:52:00,0.0,0.0,0.0,81
5129,2018-08-03 08:56:00,0.0,0.0,0.0,64
5151,2018-08-03 07:00:00,95.54166666666667,98.5,24.572363670148388,72
5151,2018-08-03 07:04:00,97.16470588235295,100.0,20.832579258061564,85
5151,2018-08-03 07:08:00,89.61971830985915,94.0,24.440812587136232,71
5151,2018-08-03 07:12:00,96.9009900990099,106.0,32.43778813374767,101
5151,2018-08-03 07:16:00,88.17894736842105,94.0,26.241504784372864,95
5151,2018-08-03 07:20:00,97.27631578947368,103.0,22.443171899539532,76
5151,2018-08-03 07:24:00,83.5179856115108,83.0,20.987350406191236,139
5151,2018-08-03 07:28:00,86.71,93.0,22.290232041063284,100
5151,2018-08-03 07:32:00,90.44274809160305,97.0,23.176632895869503,131
5151,2018-08-03 07:36:00,87.88235294117646,92.0,24.938628559260223,119
5151,2018-08-03 07:40:00,83.08870967741936,89.0,24.570460186343393,124
5151,2018-08-03 07:44:00,87.65734265734265,92.0,21.213902196671125,143
5151,2018-08-03 07:48:00,89.608,92.0,23.12619517399709,125
5151,2018-08-03 07:52:00,88.58823529411765,92.0,24.294023221157758,136
5151,2018-08-03 07:56:00,90.29203539823008,94.0,23.32636514759074,113
5151,2018-08-03 08:00:00,89.28571428571429,92.0,27.947683551110572,91
5151,2018-08-03 08:04:00,77.25454545454545,78.0,24.4800747898796,110
5151,2018-08-03 08:08:00,92.11111111111111,100.0,25.624207304812366,81
5151,2018-08-03 08:12:00,90.80172413793103,97.0,27.535974833751172,116
5151,2018-08-03 08:16:00,89.76859504132231,94.0,25.165704285322686,121
5151,2018-08-03 08:20:00,89.8411214953271,94.0,23.225372240537173,107
5151,2018-08-03 08:24:00,90.578125,92.0,22.147184593827514,128
5151,2018-08-03 08:28:00,90.41772151898734,94.0,24.503588222291196,79
5151,2018-08-03 08:32:00,91.46017699115045,97.0,24.494181305476157,113
5151,2018-08-03 08:36:00,92.08421052631579,103.0,28.061354950489022,95
5151,2018-08-03 08:40:00,89.14018691588785,97.0,28.19422147343378,107
5151,2018-08-03 08:44:00,101.47474747474747,97.0,74.64478376657026,99
5151,2018-08-03 08:48:00,83.12389380530973,86.0,24.01418209820532,113
5151,2018-08-03 08:52:00,86.47945205479452,92.0,19.836997540500512,146
5151,2018-08-03 08:56:00,78.91176470588235,81.0,21.40317407690852,136
5194,2018-08-03 07:00:00,98.5,103.0,13.0812479381383,22
5194,2018-08-03 07:04:00,87.36363636363636,89.0,10.642111888837922,11
5194,2018-08-03 07:08:00,83.47368421052632,83.0,19.486087404586407,19
5194,2018-08-03 07:12:00,95.66666666666667,104.5,28.333511585892047,12
5194,2018-08-03 07:16:00,97.625,98.5,10.442700800080408,16
5194,2018-08-03 07:20:00,91.6842105263158,92.0,12.875699038537451,19
5194,2018-08-03 07:24:00,76.63157894736842,81.0,21.01906681065178,19
5194,2018-08-03 07:28:00,66.38888888888889,65.5,22.661547864918383,18
5194,2018-08-03 07:32:00,72.68181818181819,69.0,18.573884286523846,22
5194,2018-08-03 07:36:00,79.64285714285714,84.5,21.64257606896875,14
5194,2018-08-03 07:40:00,74.95652173913044,78.0,24.83852993174034,23
5194,2018-08-03 07:44:00,64.79166666666667,65.5,23.282722025732646,24
5194,2018-08-03 07:48:00,56.73684210526316,58.0,28.522587745432677,19
5194,2018-08-03 07:52:00,74.58620689655173,78.0,22.757286496196134,29
5194,2018-08-03 07:56:00,71.44827586206897,75.0,25.106325621382684,29
5194,2018-08-03 08:00:00,78.88888888888889,82.0,20.058411434633747,18
5194,2018-08-03 08:04:00,90.82608695652173,92.0,13.438926411101596,23
5194,2018-08-03 08:08:00,71.93103448275862,75.0,23.971606767892773,29
5194,2018-08-03 08:12:00,62.625,65.5,22.02530659116423,24
5194,2018-08-03 08:16:00,76.2439024390244,83.0,28.047085844883128,41
5194,2018-08-03 08:20:00,76.23333333333333,82.0,27.770839746573834,30
5194,2018-08-03 08:24:00,80.5625,80.5,19.325177877577218,16
5194,2018-08-03 08:28:00,81.5,83.0,17.87032413943533,34
5194,2018-08-03 08:32:00,73.26923076923077,73.5,27.48608039325751,26
5194,2018-08-03 08:36:00,81.51612903225806,86.0,21.023591459345432,31
5194,2018-08-03 08:40:00,61.19230769230769,61.0,28.170934284498607,26
5194,2018-08-03 08:44:00,73.26666666666667,70.5,26.996721810355922,30
5194,2018-08-03 08:48:00,81.16666666666667,89.0,25.753584729834827,30
5194,2018-08-03 08:52:00,51.76744186046512,50.0,19.243845286099887,43
5194,2018-08-03 08:56:00,62.18181818181818,64.0,28.977852044119995,33
5195,2018-08-03 07:00:00,90.58156028368795,89.0,18.95300806444673,141
5195,2018-08-03 07:04:00,92.1448275862069,86.0,49.29122348495397,145
5195,2018-08-03 07:08:00,73.36764705882354,75.0,21.696836712100385,136
5195,2018-08-03 07:12:00,91.05357142857143,89.0,15.582217305330971,168
5195,2018-08-03 07:16:00,86.51685393258427,89.0,17.95519193053955,89
5195,2018-08-03 07:20:00,93.23780487804878,92.0,36.48612860290814,164
5195,2018-08-03 07:24:00,57.925925925925924,56.0,19.040599897178765,81
5195,2018-08-03 07:28:00,48.61073825503356,47.0,11.393283588930077,149
5195,2018-08-03 07:32:00,53.936708860759495,50.0,14.637741787612338,158
5195,2018-08-03 07:36:00,75.1604938271605,75.0,19.07256935019439,162
5195,2018-08-03 07:40:00,55.87581699346405,53.0,22.851730402473702,153
5195,2018-08-03 07:44:00,55.96341463414634,47.0,55.95113501247299,82
5195,2018-08-03 07:48:00,46.01379310344828,47.0,13.233997782907766,145
5195,2018-08-03 07:52:00,45.55725190839695,44.0,18.274471603575847,131
5195,2018-08-03 07:56:00,42.1865671641791,44.0,15.011358060941756,134
5195,2018-08-03 08:00:00,53.47445255474452,53.0,16.329367397048973,137
5195,2018-08-03 08:04:00,57.06172839506173,57.0,22.654217206571992,162
5195,2018-08-03 08:08:00,52.49664429530201,53.0,18.144548790899208,149
5195,2018-08-03 08:12:00,48.013333333333335,47.0,26.395796560487426,150
5195,2018-08-03 08:16:00,52.5527950310559,53.0,16.773453960469062,161
5195,2018-08-03 08:20:00,64.5060975609756,61.0,36.30063579209969,164
5195,2018-08-03 08:24:00,63.691428571428574,64.0,19.04612325818158,175
5195,2018-08-03 08:28:00,51.3134328358209,50.0,17.026921589169483,134
5195,2018-08-03 08:32:00,59.3421052631579,43.0,108.73681408263765,76
5195,2018-08-03 08:36:00,40.15384615384615,39.0,18.010613857902282,65
5195,2018-08-03 08:40:00,53.0,53.0,24.96318718204297,113
5195,2018-08-03 08:44:00,47.96923076923077,44.0,18.131705265578464,130
5195,2018-08-03 08:48:00,39.641304347826086,37.5,13.341319375368586,92
5195,2018-08-03 08:52:00,35.94214876033058,36.0,12.655892909801057,121
5195,2018-08-03 08:56:00,37.89763779527559,33.0,15.43179291174363,127
5196,2018-08-03 07:00:00,105.28571428571429,106.0,16.35761072319025,7
5196,2018-08-03 07:04:00,102.33333333333333,97.0,11.68332144554793,9
5196,2018-08-03 07:08:00,105.42857142857143,106.0,13.782454206564374,14
5196,2018-08-03 07:12:00,104.15384615384616,103.0,15.469573113298642,13
5196,2018-08-03 07:16:00,92.6470588235294,92.0,20.276036275831217,17
5196,2018-08-03 07:20:00,97.36842105263158,97.0,9.476347903630556,19
5196,2018-08-03 07:24:00,98.55555555555556,108.0,19.367110453556606,18
5196,2018-08-03 07:28:00,94.8125,97.0,12.270391191808029,16
5196,2018-08-03 07:32:00,89.6923076923077,90.5,12.849184350048782,26
5196,2018-08-03 07:36:00,99.96774193548387,100.0,16.67030067908743,31
5196,2018-08-03 07:40:00,118.93333333333334,111.0,58.34437990643714,15
5196,2018-08-03 07:44:00,94.5909090909091,94.0,16.343512156522216,22
5196,2018-08-03 07:48:00,99.36666666666666,106.0,20.45935134532042,30
5196,2018-08-03 07:52:00,104.38461538461539,103.0,27.1014050160901,26
5196,2018-08-03 07:56:00,100.89285714285714,100.0,23.15701523291278,28
5196,2018-08-03 08:00:00,111.91176470588235,94.0,83.89292152285512,34
5196,2018-08-03 08:04:00,97.6896551724138,94.0,11.708066353330521,29
5196,2018-08-03 08:08:00,108.95833333333333,100.0,40.367312612263795,24
5196,2018-08-03 08:12:00,111.53333333333333,108.0,15.296435937202903,15
5196,2018-08-03 08:16:00,117.93333333333334,117.0,14.359997347128024,15
5196,2018-08-03 08:20:00,121.3913043478261,111.0,38.258378916418465,23
5196,2018-08-03 08:24:00,90.6875,92.0,22.060675127855323,32
5196,2018-08-03 08:28:00,101.17241379310344,92.0,51.953323120385974,29
5196,2018-08-03 08:32:00,98.58620689655173,100.0,9.84710704935106,29
5196,2018-08-03 08:36:00,98.6842105263158,103.0,28.79824962192233,19
5196,2018-08-03 08:40:00,113.27777777777777,103.0,65.35993141765553,36
5196,2018-08-03 08:44:00,92.43478260869566,94.0,13.670891727770028,23
5196,2018-08-03 08:48:00,100.02941176470588,97.0,13.968547557123285,34
5196,2018-08-03 08:52:00,101.06060606060606,100.0,27.642742485527954,33
5196,2018-08-03 08:56:00,99.0,97.0,40.28233690672213,34
5197,2018-08-03 07:00:00,92.39779005524862,89.0,20.208271012415523,181
5197,2018-08-03 07:04:00,81.13259668508287,81.0,22.353823645029962,181
5197,2018-08-03 07:08:00,91.03428571428572,89.0,23.01920665890234,175
5197,2018-08-03 07:12:00,79.69945355191257,83.0,22.12855421819659,183
5197,2018-08-03 07:16:00,81.14124293785311,78.0,23.382378384177976,177
5197,2018-08-03 07:20:00,50.088050314465406,50.0,16.313535440845765,159
5197,2018-08-03 07:24:00,40.89873417721519,39.0,15.340795233216788,158
5197,2018-08-03 07:28:00,53.538860103626945,53.0,13.866168087971118,193
5197,2018-08-03 07:32:00,52.74860335195531,50.0,42.43260930355426,179
5197,2018-08-03 07:36:00,49.47282608695652,44.0,16.267884505568905,184
5197,2018-08-03 07:40:00,51.55978260869565,53.0,12.197675670215265,184
5197,2018-08-03 07:44:00,57.02717391304348,56.0,16.536904271917123,184
5197,2018-08-03 07:48:00,55.98969072164948,56.0,16.326014616915142,194
5197,2018-08-03 07:52:00,56.90049751243781,56.0,21.539035487951708,201
5197,2018-08-03 07:56:00,54.840425531914896,56.0,19.74912341735154,188
5197,2018-08-03 08:00:00,51.74444444444445,53.0,14.062955903362322,180
5197,2018-08-03 08:04:00,58.31553398058252,58.0,14.973552341160524,206
5197,2018-08-03 08:08:00,57.95569620253165,61.0,17.51517810819794,158
5197,2018-08-03 08:12:00,67.60663507109005,67.0,16.98127129557183,211
5197,2018-08-03 08:16:00,64.01554404145078,64.0,18.120969863421195,193
5197,2018-08-03 08:20:00,58.494565217391305,53.0,19.00043061997167,184
5197,2018-08-03 08:24:00,61.0,61.0,16.98894754316284,190
5197,2018-08-03 08:28:00,48.18421052631579,50.0,11.815726367222364,190
5197,2018-08-03 08:32:00,46.17045454545455,47.0,13.963807578089932,176
5197,2018-08-03 08:36:00,54.42931937172775,53.0,20.554522592558335,191
5197,2018-08-03 08:40:00,54.64039408866995,53.0,13.633234866062871,203
5197,2018-08-03 08:44:00,57.02010050251256,58.0,18.357273569872536,199
5197,2018-08-03 08:48:00,52.28409090909091,50.0,17.584700404376758,176
5197,2018-08-03 08:52:00,54.835,53.0,14.590138302236625,200
5197,2018-08-03 08:56:00,56.705882352941174,56.0,28.498144018930773,187
5198,2018-08-03 07:00:00,106.78571428571429,107.0,10.871123156386313,14
5198,2018-08-03 07:04:00,112.17647058823529,111.0,10.736825031856757,17
5198,2018-08-03 07:08:00,85.875,86.0,18.319180967072406,24
5198,2018-08-03 07:12:00,94.25,94.0,14.725444294737574,32
5198,2018-08-03 07:16:00,91.89655172413794,94.0,23.66333032289503,29
5198,2018-08-03 07:20:00,107.28571428571429,106.0,13.162396333824525,28
5198,2018-08-03 07:24:00,98.62962962962963,103.0,13.347855339538336,27
5198,2018-08-03 07:28:00,119.15789473684211,122.0,11.30026134355965,19
5198,2018-08-03 07:32:00,108.625,111.0,13.45052663157345,16
5198,2018-08-03 07:36:00,109.0,106.0,11.820885471627467,16
5198,2018-08-03 07:40:00,112.36842105263158,111.0,18.26718529165159,19
5198,2018-08-03 07:44:00,109.04545454545455,111.0,11.789734326855527,22
5198,2018-08-03 07:48:00,111.62068965517241,111.0,10.97859538603397,29
5198,2018-08-03 07:52:00,110.88888888888889,115.5,17.008264042859693,18
5198,2018-08-03 07:56:00,102.17391304347827,103.0,14.624550261656982,23
5198,2018-08-03 08:00:00,107.83333333333333,106.0,12.8655737728928,30
5198,2018-08-03 08:04:00,106.76,108.0,15.610573339887297,25
5198,2018-08-03 08:08:00,99.3913043478261,100.0,14.304287756520553,23
5198,2018-08-03 08:12:00,112.95238095238095,117.0,11.698188707984626,21
5198,2018-08-03 08:16:00,108.33333333333333,106.0,15.246986201715211,18
5198,2018-08-03 08:20:00,113.6875,119.0,13.826152754833856,16
5198,2018-08-03 08:24:00,101.82608695652173,100.0,14.2944750099567,23
5198,2018-08-03 08:28:00,113.24242424242425,114.0,8.598801889763124,33
5198,2018-08-03 08:32:00,110.19047619047619,106.0,18.071023899101696,21
5198,2018-08-03 08:36:00,114.48148148148148,117.0,15.041916741534612,27
5198,2018-08-03 08:40:00,113.58333333333333,118.0,12.55913548210907,24
5198,2018-08-03 08:44:00,115.6842105263158,117.0,11.416618645052033,19
5198,2018-08-03 08:48:00,111.51851851851852,106.0,20.888661573594952,27
5198,2018-08-03 08:52:00,110.76470588235294,106.0,17.399161985269906,34
5198,2018-08-03 08:56:00,110.45833333333333,109.5,24.354232141219438,24
5199,2018-08-03 07:00:00,92.08928571428571,94.0,16.753882509062173,168
5199,2018-08-03 07:04:00,88.03030303030303,86.0,18.598919534060087,165
5199,2018-08-03 07:08:00,67.66153846153846,69.0,23.583121623775018,130
5199,2018-08-03 07:12:00,66.68047337278107,67.0,16.885247428656925,169
5199,2018-08-03 07:16:00,75.44705882352942,75.0,17.739739684656026,170
5199,2018-08-03 07:20:00,82.3859649122807,83.0,19.47283572747816,171
5199,2018-08-03 07:24:00,87.6544502617801,86.0,13.778930085513176,191
5199,2018-08-03 07:28:00,76.12650602409639,78.0,20.645102636452553,166
5199,2018-08-03 07:32:00,85.79888268156425,89.0,19.535441686602663,179
5199,2018-08-03 07:36:00,88.81868131868131,90.5,15.803876803125805,182
5199,2018-08-03 07:40:00,89.56497175141243,89.0,13.328349575771567,177
5199,2018-08-03 07:44:00,103.59776536312849,100.0,65.89270471231386,179
5199,2018-08-03 07:48:00,102.98378378378378,103.0,14.808001536946637,185
5199,2018-08-03 07:52:00,94.20320855614973,94.0,18.093882717657817,187
5199,2018-08-03 07:56:00,97.06593406593407,97.0,19.221766091182594,182
5199,2018-08-03 08:00:00,96.34054054054054,94.0,14.886079349576235,185
5199,2018-08-03 08:04:00,99.54748603351955,97.0,19.692059993574425,179
5199,2018-08-03 08:08:00,94.01098901098901,92.0,18.568668737552546,182
5199,2018-08-03 08:12:00,95.54938271604938,97.0,19.10840355898721,162
5199,2018-08-03 08:16:00,106.84049079754601,108.0,16.746817047997872,163
5199,2018-08-03 08:20:00,95.89673913043478,97.0,16.442155277911148,184
5199,2018-08-03 08:24:00,96.37988826815642,97.0,14.183026649177034,179
5199,2018-08-03 08:28:00,103.6300578034682,106.0,14.841864833666465,173
5199,2018-08-03 08:32:00,99.9702380952381,100.0,15.992672571864762,168
5199,2018-08-03 08:36:00,105.21428571428571,106.0,20.52693363065122,168
5199,2018-08-03 08:40:00,99.93922651933701,100.0,15.123626015041774,181
5199,2018-08-03 08:44:00,102.09444444444445,103.0,16.206315488130137,180
5199,2018-08-03 08:48:00,96.4971098265896,97.0,17.050753334464492,173
5199,2018-08-03 08:52:00,92.66153846153846,92.0,14.58986753655899,195
5199,2018-08-03 08:56:00,97.27222222222223,97.0,18.607630607410762,180
5200,2018-08-03 07:00:00,118.83333333333333,123.5,17.837226989267883,6
5200,2018-08-03 07:04:00,115.6,119.0,7.944449994448059,15
5200,2018-08-03 07:08:00,106.52941176470588,106.0,14.69318569549684,17
5200,2018-08-03 07:12:00,109.52631578947368,111.0,9.794377191093036,19
5200,2018-08-03 07:16:00,105.0,103.0,8.024961059095551,11
5200,2018-08-03 07:20:00,100.95238095238095,97.0,18.674785649308507,21
5200,2018-08-03 07:24:00,104.0,100.0,12.423680054112653,24
5200,2018-08-03 07:28:00,101.0,100.0,12.306687021881457,23
5200,2018-08-03 07:32:00,98.35,97.0,10.727608258478144,20
5200,2018-08-03 07:36:00,103.23076923076923,100.0,14.830529841668348,26
5200,2018-08-03 07:40:00,102.70588235294117,106.0,9.101955187501979,17
5200,2018-08-03 07:44:00,106.07692307692308,106.0,12.099332467282903,26
5200,2018-08-03 07:48:00,94.70967741935483,92.0,13.026111080920243,31
5200,2018-08-03 07:52:00,105.92857142857143,106.0,10.862536950211448,28
5200,2018-08-03 07:56:00,101.48275862068965,100.0,14.635135534672253,29
5200,2018-08-03 08:00:00,97.3913043478261,94.0,14.962799721110724,23
5200,2018-08-03 08:04:00,108.83333333333333,108.5,13.60200326252068,24
5200,2018-08-03 08:08:00,106.85,111.0,14.5648278577646,20
5200,2018-08-03 08:12:00,102.6923076923077,103.0,10.555640125617135,26
5200,2018-08-03 08:16:00,86.84375,87.5,20.14481342838687,32
5200,2018-08-03 08:20:00,103.45454545454545,101.5,11.458942329349568,22
5200,2018-08-03 08:24:00,72.68571428571428,78.0,22.135639918959846,35
5200,2018-08-03 08:28:00,93.20588235294117,92.0,14.016828439447035,34
5200,2018-08-03 08:32:00,91.28125,90.5,24.337988857194087,32
5200,2018-08-03 08:36:00,94.8,90.5,18.689363490828345,40
5200,2018-08-03 08:40:00,89.45161290322581,86.0,19.022510717003016,31
5200,2018-08-03 08:44:00,105.68181818181819,100.0,17.937421282087406,22
5200,2018-08-03 08:48:00,102.76923076923077,100.0,12.361786488294735,39
5200,2018-08-03 08:52:00,106.33333333333333,103.0,14.674240468703426,30
5200,2018-08-03 08:56:00,104.97222222222223,103.0,12.046306158465843,36
5201,2018-08-03 07:00:00,102.38938053097345,100.0,12.381173516615702,113
5201,2018-08-03 07:04:00,94.14912280701755,94.0,13.265987153352988,114
5201,2018-08-03 07:08:00,72.88059701492537,78.0,20.15132405811163,134
5201,2018-08-03 07:12:00,53.14150943396226,56.0,19.114910001529612,106
5201,2018-08-03 07:16:00,54.18103448275862,56.0,19.584643113344228,116
5201,2018-08-03 07:20:00,57.06194690265487,61.0,21.084559002231565,113
5201,2018-08-03 07:24:00,46.53398058252427,50.0,16.604874983428974,103
5201,2018-08-03 07:28:00,49.279661016949156,50.0,17.395787678169025,118
5201,2018-08-03 07:32:00,55.788990825688074,58.0,15.621135607754034,109
5201,2018-08-03 07:36:00,48.483333333333334,50.0,14.826720900491258,120
5201,2018-08-03 07:40:00,64.52631578947368,67.0,21.570305107083417,114
5201,2018-08-03 07:44:00,50.35344827586207,53.0,18.862087260748314,116
5201,2018-08-03 07:48:00,45.70338983050848,50.0,13.897862666663318,118
5201,2018-08-03 07:52:00,55.99074074074074,58.0,19.185516037219315,108
5201,2018-08-03 07:56:00,57.675925925925924,64.0,19.729397726455502,108
5201,2018-08-03 08:00:00,37.8,39.0,17.164242947332575,90
5201,2018-08-03 08:04:00,39.544444444444444,39.0,16.29583327946625,90
5201,2018-08-03 08:08:00,47.58974358974359,50.0,15.024780591750375,117
5201,2018-08-03 08:12:00,57.14563106796116,58.0,20.92817210336452,103
5201,2018-08-03 08:16:00,42.01020408163265,44.0,19.205076056857312,98
5201,2018-08-03 08:20:00,39.906976744186046,39.0,15.759686401013075,86
5201,2018-08-03 08:24:00,38.62337662337662,44.0,16.32163478737973,77
5201,2018-08-03 08:28:00,43.93150684931507,47.0,22.633142345244316,73
5201,2018-08-03 08:32:00,40.26027397260274,39.0,22.342676775163977,73
5201,2018-08-03 08:36:00,43.28409090909091,43.0,19.999395889517853,88
5201,2018-08-03 08:40:00,47.80392156862745,50.0,19.786003261474875,102
5201,2018-08-03 08:44:00,48.30927835051546,50.0,17.23027908021604,97
5201,2018-08-03 08:48:00,49.704081632653065,47.0,23.13974096731647,98
5201,2018-08-03 08:52:00,39.943820224719104,36.0,16.145193170500256,89
5201,2018-08-03 08:56:00,54.92391304347826,56.0,21.560155403042543,92
5202,2018-08-03 07:00:00,97.5,108.5,22.572689600255305,20
5202,2018-08-03 07:04:00,96.26666666666667,97.0,13.891037381715954,30
5202,2018-08-03 07:08:00,103.38888888888889,107.0,15.908336286321484,18
5202,2018-08-03 07:12:00,99.0,100.0,15.535882220319394,23
5202,2018-08-03 07:16:00,104.73684210526316,106.0,10.180821322811704,19
5202,2018-08-03 07:20:00,107.28571428571429,108.0,10.630817734976251,21
5202,2018-08-03 07:24:00,107.15789473684211,106.0,12.21685155792212,19
5202,2018-08-03 07:28:00,108.42105263157895,108.0,12.513618312656567,19
5202,2018-08-03 07:32:00,108.47826086956522,111.0,11.862352845020368,23
5202,2018-08-03 07:36:00,113.52941176470588,114.0,16.25237539199587,17
5202,2018-08-03 07:40:00,109.86363636363636,107.0,10.338533812165117,22
5202,2018-08-03 07:44:00,114.9375,115.5,9.760251021362105,16
5202,2018-08-03 07:48:00,100.25,98.5,20.46948949045872,16
5202,2018-08-03 07:52:00,108.81818181818181,106.0,10.08835426493795,22
5202,2018-08-03 07:56:00,107.76190476190476,108.0,12.69214230106471,21
5202,2018-08-03 08:00:00,115.95833333333333,114.0,11.315549773063031,24
5202,2018-08-03 08:04:00,113.60714285714286,112.5,10.111743395545327,28
5202,2018-08-03 08:08:00,115.81481481481481,114.0,13.864833869672516,27
5202,2018-08-03 08:12:00,104.32142857142857,106.0,14.026571533867745,28
5202,2018-08-03 08:16:00,117.53333333333333,117.0,6.957695294386196,15
5202,2018-08-03 08:20:00,108.5,108.0,9.929926901838808,30
5202,2018-08-03 08:24:00,105.48780487804878,108.0,11.804918363164393,41
5202,2018-08-03 08:28:00,111.38461538461539,108.0,6.3184710906260335,13